• In Hungary
  • List of Countries
  • For 7 days
  • Water Temperature
  • Satellite Maps
  • Weather Map
  • News
  • Weather Widgets
  • user-avatar
    Login

    Hourly Weather Addi-Ugri

    Today, 21 September, Friday

    Time Temperature Precipitation Wind Pressure Humidity
    00:00 +21°C° 0 mm 1 mps 600 mmHg 42%
    01:00 +20°C° 0 mm 1 mps 599 mmHg 43%
    02:00 +20°C° 0 mm 1 mps 599 mmHg 43%
    03:00 +19°C° 0 mm 1 mps 599 mmHg 44%
    04:00 +19°C° 0 mm 1 mps 599 mmHg 45%
    05:00 +18°C° 0 mm 1 mps 599 mmHg 46%
    06:00 +18°C° 0 mm 1 mps 599 mmHg 47%
    07:00 +20°C° 0 mm 1 mps 600 mmHg 42%
    08:00 +21°C° 0 mm 2 mps 601 mmHg 37%
    09:00 +25°C° 0 mm 2 mps 602 mmHg 32%
    10:00 +26°C° 0 mm 2 mps 603 mmHg 28%
    11:00 +27°C° 0 mm 3 mps 603 mmHg 24%
    12:00 +29°C° 0 mm 4 mps 604 mmHg 20%
    13:00 +29°C° 0 mm 4 mps 603 mmHg 19%
    14:00 +29°C° 0 mm 4 mps 603 mmHg 19%
    15:00 +30°C° 0 mm 4 mps 603 mmHg 18%
    16:00 +28°C° 0 mm 4 mps 602 mmHg 22%
    17:00 +27°C° 0 mm 4 mps 601 mmHg 26%
    18:00 +26°C° 0 mm 4 mps 601 mmHg 30%
    19:00 +24°C° 0 mm 3 mps 600 mmHg 34%
    20:00 +23°C° 0 mm 2 mps 600 mmHg 38%
    21:00 +22°C° 0 mm 1 mps 600 mmHg 42%
    22:00 +21°C° 0 mm 1 mps 600 mmHg 43%
    23:00 +20°C° 0 mm 1 mps 600 mmHg 44%

    Tomorrow, 22 September, Saturday

    Time Temperature Precipitation Wind Pressure Humidity
    00:00 +20°C° 0 mm 1 mps 600 mmHg 46%
    01:00 +19°C° 0.1 mm 1 mps 600 mmHg 46%
    02:00 +19°C° 0.1 mm 1 mps 599 mmHg 46%
    03:00 +19°C° 0.1 mm 1 mps 599 mmHg 47%
    04:00 +18°C° 0 mm 1 mps 599 mmHg 47%
    05:00 +18°C° 0 mm 1 mps 599 mmHg 47%
    06:00 +18°C° 0 mm 1 mps 599 mmHg 48%
    07:00 +20°C° 0 mm 1 mps 600 mmHg 41%
    08:00 +22°C° 0 mm 1 mps 602 mmHg 35%
    09:00 +25°C° 0 mm 1 mps 603 mmHg 28%
    10:00 +26°C° 0 mm 2 mps 604 mmHg 25%
    11:00 +28°C° 0 mm 3 mps 604 mmHg 22%
    12:00 +29°C° 0 mm 5 mps 604 mmHg 20%
    13:00 +29°C° 0 mm 5 mps 604 mmHg 19%
    14:00 +30°C° 0 mm 5 mps 603 mmHg 18%
    15:00 +30°C° 0 mm 6 mps 603 mmHg 17%
    16:00 +29°C° 0 mm 5 mps 602 mmHg 19%
    17:00 +27°C° 0 mm 4 mps 602 mmHg 22%
    18:00 +26°C° 0 mm 4 mps 601 mmHg 24%
    19:00 +25°C° 0 mm 3 mps 601 mmHg 25%
    20:00 +23°C° 0 mm 2 mps 601 mmHg 27%
    21:00 +22°C° 0 mm 1 mps 601 mmHg 28%
    22:00 +21°C° 0 mm 1 mps 601 mmHg 29%
    23:00 +21°C° 0 mm 1 mps 601 mmHg 30%

    Day after tomorrow, 23 September, Sunday

    Time Temperature Precipitation Wind Pressure Humidity
    00:00 +20°C° 0 mm 1 mps 601 mmHg 30%
    01:00 +20°C° 0 mm 1 mps 600 mmHg 30%
    02:00 +20°C° 0 mm 1 mps 600 mmHg 30%
    03:00 +19°C° 0 mm 1 mps 600 mmHg 30%
    04:00 +19°C° 0 mm 1 mps 600 mmHg 32%
    05:00 +19°C° 0 mm 1 mps 600 mmHg 33%
    06:00 +18°C° 0 mm 1 mps 600 mmHg 34%
    07:00 +20°C° 0 mm 1 mps 601 mmHg 31%
    08:00 +23°C° 0 mm 2 mps 602 mmHg 27%
    09:00 +25°C° 0 mm 2 mps 604 mmHg 24%
    10:00 +26°C° 0 mm 3 mps 604 mmHg 22%
    11:00 +28°C° 0 mm 4 mps 604 mmHg 19%
    12:00 +29°C° 0 mm 5 mps 605 mmHg 17%
    13:00 +30°C° 0 mm 6 mps 604 mmHg 16%
    14:00 +30°C° 0 mm 6 mps 604 mmHg 16%
    15:00 +30°C° 0 mm 6 mps 603 mmHg 15%
    16:00 +29°C° 0 mm 5 mps 602 mmHg 18%
    17:00 +27°C° 0 mm 5 mps 602 mmHg 21%
    18:00 +26°C° 0 mm 4 mps 601 mmHg 24%
    19:00 +24°C° 0 mm 3 mps 601 mmHg 26%
    20:00 +23°C° 0 mm 2 mps 601 mmHg 29%
    21:00 +21°C° 0 mm 2 mps 601 mmHg 32%
    22:00 +20°C° 0 mm 2 mps 601 mmHg 32%
    23:00 +20°C° 0 mm 2 mps 601 mmHg 32%

    24 September, Monday

    Time Temperature Precipitation Wind Pressure Humidity
    00:00 +19°C° 0 mm 2 mps 601 mmHg 33%
    01:00 +19°C° 0 mm 2 mps 600 mmHg 34%
    02:00 +18°C° 0 mm 2 mps 600 mmHg 35%
    03:00 +19°C° 0 mm 1 mps 599 mmHg 36%
    04:00 +19°C° 0 mm 1 mps 599 mmHg 37%
    05:00 +19°C° 0 mm 1 mps 599 mmHg 38%
    06:00 +18°C° 0 mm 1 mps 599 mmHg 39%
    07:00 +20°C° 0 mm 2 mps 600 mmHg 35%
    08:00 +23°C° 0 mm 2 mps 602 mmHg 31%
    09:00 +25°C° 0 mm 2 mps 603 mmHg 28%
    10:00 +27°C° 0 mm 3 mps 603 mmHg 25%
    11:00 +28°C° 0 mm 4 mps 603 mmHg 23%
    12:00 +29°C° 0 mm 5 mps 604 mmHg 21%
    13:00 +30°C° 0 mm 5 mps 603 mmHg 20%
    14:00 +30°C° 0 mm 5 mps 603 mmHg 20%
    15:00 +30°C° 0 mm 5 mps 602 mmHg 19%
    16:00 +29°C° 0 mm 5 mps 601 mmHg 22%
    17:00 +28°C° 0 mm 4 mps 601 mmHg 24%
    18:00 +26°C° 0 mm 4 mps 600 mmHg 27%
    19:00 +25°C° 0 mm 3 mps 600 mmHg 29%
    20:00 +24°C° 0 mm 2 mps 600 mmHg 32%
    21:00 +22°C° 0 mm 1 mps 600 mmHg 34%
    22:00 +22°C° 0 mm 1 mps 600 mmHg 34%
    23:00 +21°C° 0 mm 1 mps 600 mmHg 35%

    25 September, Tuesday

    Time Temperature Precipitation Wind Pressure Humidity
    00:00 +21°C° 0 mm 1 mps 599 mmHg 35%
    01:00 +20°C° 0 mm 1 mps 599 mmHg 36%
    02:00 +20°C° 0 mm 1 mps 599 mmHg 36%
    03:00 +19°C° 0 mm 1 mps 598 mmHg 37%
    04:00 +19°C° 0 mm 1 mps 599 mmHg 38%
    05:00 +19°C° 0 mm 1 mps 599 mmHg 39%
    06:00 +18°C° 0 mm 1 mps 599 mmHg 40%
    07:00 +21°C° 0 mm 1 mps 600 mmHg 36%
    08:00 +23°C° 0 mm 1 mps 602 mmHg 31%
    09:00 +25°C° 0 mm 1 mps 603 mmHg 26%
    10:00 +26°C° 0 mm 1 mps 603 mmHg 24%
    11:00 +28°C° 0 mm 2 mps 603 mmHg 22%
    12:00 +29°C° 0 mm 2 mps 603 mmHg 20%
    13:00 +29°C° 0 mm 3 mps 603 mmHg 21%
    14:00 +29°C° 0 mm 3 mps 602 mmHg 21%
    15:00 +29°C° 0 mm 3 mps 602 mmHg 21%
    16:00 +28°C° 0 mm 3 mps 602 mmHg 24%
    17:00 +27°C° 0 mm 3 mps 601 mmHg 27%
    18:00 +26°C° 0 mm 3 mps 601 mmHg 30%
    19:00 +25°C° 0 mm 2 mps 601 mmHg 33%
    20:00 +24°C° 0 mm 2 mps 601 mmHg 36%
    21:00 +23°C° 0 mm 1 mps 601 mmHg 39%
    22:00 +22°C° 0 mm 1 mps 600 mmHg 40%
    23:00 +21°C° 0 mm 1 mps 600 mmHg 41%

    26 September, Wednesday

    Time Temperature Precipitation Wind Pressure Humidity
    00:00 +21°C° 0 mm 1 mps 599 mmHg 42%
    01:00 +20°C° 0 mm 1 mps 599 mmHg 42%
    02:00 +20°C° 0 mm 1 mps 599 mmHg 43%
    03:00 +19°C° 0 mm 1 mps 598 mmHg 43%
    04:00 +19°C° 0 mm 1 mps 599 mmHg 43%
    05:00 +16°C° 0 mm 0 mps 599 mmHg 43%
    06:00 +16°C° 0 mm 0 mps 599 mmHg 43%
    07:00 +21°C° 0 mm 1 mps 601 mmHg 37%
    08:00 +23°C° 0 mm 1 mps 602 mmHg 32%
    09:00 +25°C° 0 mm 1 mps 603 mmHg 27%
    10:00 +26°C° 0 mm 2 mps 603 mmHg 25%
    11:00 +27°C° 0 mm 3 mps 603 mmHg 24%
    12:00 +29°C° 0 mm 4 mps 603 mmHg 23%
    13:00 +29°C° 0 mm 4 mps 603 mmHg 23%
    14:00 +29°C° 0 mm 4 mps 602 mmHg 24%
    15:00 +29°C° 0 mm 4 mps 602 mmHg 24%
    16:00 +28°C° 0 mm 4 mps 601 mmHg 27%
    17:00 +27°C° 0 mm 3 mps 601 mmHg 29%
    18:00 +26°C° 0 mm 3 mps 601 mmHg 32%
    19:00 +24°C° 0 mm 2 mps 601 mmHg 33%
    20:00 +23°C° 0 mm 2 mps 601 mmHg 35%
    21:00 +22°C° 0 mm 1 mps 600 mmHg 37%
    22:00 +21°C° 0 mm 1 mps 600 mmHg 38%
    23:00 +20°C° 0 mm 1 mps 600 mmHg 38%
    Show more